Mecheria, Algeria

2:17 PM CET on November 13, 2019 (GMT +0100)
Mecheria

Weather History for DAAY - May, 2019

Change the Weather History Date:

Saturday, May 25, 2019

  Actual Average (WUND) Record (WUND)
Temperature  
Mean Temperature 65 °F -  
Max Temperature 73 °F - - (-1)
Min Temperature 57 °F - - (-1)
Growing Degree Days 15 (Base 50)    
Moisture  
Dew Point 48 °F    
Average Humidity 54    
Maximum Humidity 77    
Minimum Humidity 34    
Precipitation  
Precipitation 0.00 in - - ()
Sea Level Pressure  
Sea Level Pressure 30.04 in    
Wind  
Wind Speed 13 mph ()    
Max Wind Speed 23 mph    
Max Gust Speed -    
Visibility 6.2 miles    
Events      
Averages and records for this station are not official NWS values.
T = Trace of Precipitation, MM = Missing Value Source: Averaged Metar Reports

Daily Weather History Graph

Daily Weather History Graph

Search for Another Location

Airport or City:

Astronomy

May. 25, 2019 Rise Set
Actual Time 5:54 AM CET 8:01 PM CET
Civil Twilight 5:26 AM CET 8:29 PM CET
Nautical Twilight 4:52 AM CET 9:03 PM CET
Astronomical Twilight 4:15 AM CET 9:40 PM CET
Moon 12:56 AM CET (5/25) 11:36 AM CET (5/25)
Length of Visible Light 15h 02m
Length of Day
14h 06m
Waning Gibbous, 62% of the Moon is Illuminated
May 25
Waning Gibbous
May 26
Last Quarter
Jun 3
New
Jun 10
First Quarter
Jun 17
Full

Hourly Weather History & Observations

Time (CET) Temp. Dew Point Humidity Pressure Visibility Wind Dir Wind Speed Gust Speed Precip Events Conditions
12:00 AM 64.4 °F 51.8 °F 64% 30.04 in 6.2 mi North 13.8 mph - N/A   Scattered Clouds
1:00 AM 64.4 °F 50.0 °F 59% 30.04 in 6.2 mi North 9.2 mph - N/A   Scattered Clouds
2:00 AM 62.6 °F 50.0 °F 63% 30.04 in 6.2 mi North 9.2 mph - N/A   Scattered Clouds
4:00 AM 62.6 °F 48.2 °F 59% 30.01 in 6.2 mi North 11.5 mph - N/A   Scattered Clouds
5:00 AM 62.6 °F 46.4 °F 55% 30.01 in 6.2 mi North 13.8 mph - N/A   Scattered Clouds
6:00 AM 60.8 °F 46.4 °F 59% 30.01 in 6.2 mi North 13.8 mph - N/A   Scattered Clouds
7:00 AM 60 °F 45 °F 48%  in 6 mi North 13.8 mph - -   Scattered Clouds
7:00 AM 60.8 °F 44.6 °F 55% 30.01 in 6.2 mi North 13.8 mph - N/A   Scattered Clouds
8:00 AM 60.8 °F 46.4 °F 59% 30.01 in 6.2 mi North 11.5 mph - N/A   Mostly Cloudy
9:00 AM 62.6 °F 46.4 °F 55% 30.04 in 6.2 mi North 11.5 mph - N/A   Mostly Cloudy
10:00 AM 62.6 °F 46.4 °F 55% 30.04 in 6.2 mi North 16.1 mph - N/A   Mostly Cloudy
11:00 AM 64.4 °F 48.2 °F 56% 30.04 in 6.2 mi North 16.1 mph - N/A   Mostly Cloudy
12:00 PM 66.2 °F 50.0 °F 56% 30.04 in 6.2 mi North 16.1 mph - N/A   Scattered Clouds
1:00 PM 69 °F 51 °F 41%  in 6 mi North 16.1 mph - -   Partly Cloudy
1:00 PM 68.0 °F 50.0 °F 52% 30.04 in 6.2 mi North 16.1 mph - N/A   Scattered Clouds
2:00 PM 69.8 °F 51.8 °F 53% 30.04 in 6.2 mi North 20.7 mph - N/A   Scattered Clouds
3:00 PM 71.6 °F 51.8 °F 50% 30.04 in 6.2 mi North 20.7 mph - N/A   Scattered Clouds
4:00 PM 72 °F 51 °F 36%  in 6 mi North 23.0 mph - -   Partly Cloudy
4:00 PM 73.4 °F 50.0 °F 44% 30.01 in 6.2 mi North 23.0 mph - N/A   Scattered Clouds
5:00 PM 71.6 °F 48.2 °F 43% 30.01 in 6.2 mi North 20.7 mph - N/A   Scattered Clouds
6:00 PM 69.8 °F 48.2 °F 46% 30.01 in 6.2 mi North 23.0 mph - N/A   Scattered Clouds
7:00 PM 68 °F 46 °F 34%  in 6 mi North 20.7 mph - -   Partly Cloudy
7:00 PM 68.0 °F 46.4 °F 46% 30.04 in 6.2 mi North 20.7 mph - N/A   Scattered Clouds
9:00 PM 59.0 °F 48.2 °F 67% 30.09 in 6.2 mi North 20.7 mph - N/A   Partly Cloudy
10:00 PM 57.2 °F 50.0 °F 77% 30.12 in 6.2 mi North 16.1 mph - N/A   Partly Cloudy
11:00 PM 57.2 °F 48.2 °F 72% 30.12 in 6.2 mi North 20.7 mph - N/A   Partly Cloudy